Location: Aalen
(48.8330°N, 10.1000°E)
Time: 23:25:02
(UTC+02:00)

M-CUBED/EXP-1 PRIME - Visible Passes

Search period start: 19 September 2021 00:00
Search period end: 29 September 2021 00:00
Orbit: 427 x 656 km, 101.7° (Epoch: 19 September)

Date Brightness Start Highest point End Pass type
(mag) Time Alt. Az. Time Alt. Az. Time Alt. Az.
19 Sep ? 05:13:36 10° NE 05:16:29 27° ESE 05:19:18 10° SSE visible
20 Sep ? 05:06:58 10° NE 05:09:35 21° E 05:12:07 10° SSE visible
21 Sep ? 05:00:24 10° NE 05:02:38 17° E 05:04:50 10° SE visible
22 Sep ? 04:54:00 10° ENE 04:55:41 13° E 04:57:21 10° SE visible
22 Sep ? 06:26:58 10° N 06:30:07 42° WNW 06:33:11 10° SW visible
23 Sep ? 04:48:04 10° E 04:48:43 10° E 04:49:22 10° ESE visible
23 Sep ? 06:20:03 10° NNE 06:23:16 54° WNW 06:26:26 10° SW visible
24 Sep ? 06:13:08 10° NNE 06:16:25 72° WNW 06:19:37 10° SSW visible
25 Sep ? 06:06:15 10° NNE 06:09:32 87° ESE 06:12:46 10° SSW visible
26 Sep ? 05:59:23 10° NNE 06:02:38 66° ESE 06:05:51 10° SSW visible
27 Sep ? 05:52:34 10° NNE 05:55:44 49° ESE 05:58:53 10° S visible
28 Sep ? 05:45:45 10° NE 05:48:49 38° ESE 05:51:52 10° S visible
